Location: ?nandapuram
(16.5396°N, 81.1430°E)
Time: 15:22:00
(UTC+00:00)

IRS-1C - Pass Details

Date: 14 April 2026
Orbit: 812 x 814 km, 99.0° (Epoch: 11 May)

Event Time Altitude Azimuth Distance (km) Brightness Sun altitude
Rises 13:00:35 0° 170° (S) 3,325 7.1 -3.2°
Reaches altitude 10° 13:02:56 10° 171° (S) 2,395 6.4 -3.7°
Maximum altitude 13:08:13 77° 257° (WSW) 836 4.4 -5.0°
Drops below altitude 10° 13:13:31 10° 343° (NNW) 2,398 7.0 -6.2°
Sets 13:15:52 0° 345° (NNW) 3,330 7.7 -6.8°
